Flag for U.S.A. Weather past 2 weeks in Dover, Delaware, U.S.A.

Now
74 °F

Clear.


Feels Like: 73 °F
Forecast: 71 / 90 °F
Wind: 6 mph from South

Location: Dover Air Force Base

Current Time: Aug 2, 2015 at 11:08:23 PM

Latest Report: Aug 2, 2015 at 9:58 PM


Visibility: 10 mi

Pressure: 29.92 "Hg

Humidity: 82%

Dew point: 68 °F

Location of DoverLocation

Historic Weather in Dover — Graph

°F

Dover temperature yesterday

Maximum temperature yesterday: 88 °F (at 1:58 PM)
Minimum temperature yesterday: 71 °F (at 5:58 AM)
Average temperature yesterday: 80 °F

Past Weeks' High & Low Weather Summary

 TemperatureHumidityPressure
High93 °F (Jul 19, 4:58 PM)100% (Jul 18, 10:58 PM)30.03 "Hg (Jul 18, 10:58 PM)
Low64 °F (Jul 25, 3:58 AM)35% (Jul 24, 2:58 PM)29.62 "Hg (Jul 21, 2:58 PM)
Average79 °F75%29.89 "Hg
* Reported Jul 18 9:58 PM — Aug 2 9:58 PM, Dover, Weather by CustomWeather, © 2015

Note: Actual official high and low records may vary slightly from our data, if they occured in-between our weather recording intervals... More about our weather records

Advertising

Dover weather history for previous 24 hours

 ConditionsComfort  
Time TempWeatherWind HumidityBarometerVisibility
9:58 PM
Sun, Aug 2
74 °FClear.6 mph82%29.92 "Hg10 mi
9:03 PM75 °FSunny.5 mph78%29.89 "Hg10 mi
8:58 PM77 °FSunny.5 mph73%29.91 "Hg8 mi
7:58 PM79 °FSunny.7 mph65%29.90 "Hg10 mi
6:58 PM83 °FSunny.8 mph55%29.90 "Hg10 mi
5:58 PM87 °FSunny.9 mph43%29.91 "Hg10 mi
4:58 PM88 °FSunny.8 mph40%29.92 "Hg10 mi
3:58 PM88 °FSunny.12 mph40%29.92 "Hg10 mi
2:58 PM87 °FSunny.3 mph47%29.92 "Hg10 mi
12:58 PM86 °FSunny.7 mph42%29.95 "Hg10 mi
11:58 AM84 °FSunny.1 mph51%29.96 "Hg10 mi
10:58 AM81 °FSunny.5 mph60%29.96 "Hg10 mi
9:58 AM80 °FPassing clouds.6 mph67%29.94 "Hg10 mi
8:58 AM76 °FPartly sunny.6 mph67%29.93 "Hg10 mi
7:58 AM72 °FPartly sunny.5 mph78%29.92 "Hg10 mi
6:58 AM69 °FClear.6 mph87%29.91 "Hg10 mi
5:58 AM69 °FClear.2 mph93%29.90 "Hg10 mi
4:58 AM71 °FClear.3 mph89%29.89 "Hg10 mi
3:58 AM70 °FClear.2 mph100%29.88 "Hg10 mi
2:58 AM71 °FClear.3 mph100%29.88 "Hg10 mi
1:58 AM72 °FPassing clouds.3 mph95%29.89 "Hg10 mi
11:58 PM
Sat, Aug 1
75 °FPassing clouds.2 mph86%29.88 "Hg10 mi
Weather by CustomWeather, © 2015

See weather overviewHow to use our weather pages